Location: Newark
(35.6799°N, 139.7636°E)
Time: 14:51:12
(UTC+00:00)

Explorer 7 - Pass Details

Date: 11 December 2019
Orbit: 485 x 679 km, 50.3° (Epoch: 24 January)

Event Time Altitude Azimuth Distance (km) Brightness Sun altitude
Rises 11:58:08 0° 313° (NW) 3,020 - -54.0°
Reaches altitude 10° 12:00:38 10° 320° (NW) 2,089 - -54.5°
Maximum altitude 12:05:15 44° 33° (NNE) 892 - -55.4°
Drops below altitude 10° 12:09:40 10° 106° (ESE) 1,991 - -56.3°
Sets 12:11:59 0° 112° (ESE) 2,862 - -56.8°
